FW5940 Weather Reports


Display with metric or nautical units.
time (UTC)temp
F
wind
direction
speed
MPH
gust
MPH
rain 1hr
in
rain 24hr
in
rain mn
in
humidity
%
barometer
mb
20260906165017 70 32 1.0 3.0 0.00 0.00 0.00 50 1025.2
20260906164016 71 39 2.0 4.0 0.00 0.00 0.00 48 1025.2
20260906163019 72 27 3.0 6.0 0.00 0.00 0.00 48 1025.2
20260906162018 72 5 3.0 5.0 0.00 0.00 0.00 47 1025.2
20260906161016 72 7 3.0 7.0 0.00 0.00 0.00 46 1025.1
20260906160017 73 8 3.0 7.0 0.00 0.00 0.00 44 1025.1
20260906155016 74 24 4.0 10.0 0.00 0.00 0.00 43 1025.1
20260906154024 74 12 4.0 7.0 0.00 0.00 0.00 43 1025.3
20260906153037 74 349 6.0 11.0 0.00 0.00 0.00 43 1025.2
20260906152018 74 5 6.0 10.0 0.00 0.00 0.00 43 1025.3
20260906151021 74 19 3.0 7.0 0.00 0.00 0.00 43 1025.3
20260906150016 74 10 4.0 10.0 0.00 0.00 0.00 43 1025.4
20260906145020 74 18 3.0 7.0 0.00 0.00 0.00 43 1025.5
20260906144041 74 14 4.0 8.0 0.00 0.00 0.00 43 1025.6
20260906143018 75 1 4.0 8.0 0.00 0.00 0.00 44 1025.6
20260906142037 74 1 5.0 9.0 0.00 0.00 0.00 44 1025.6
20260906141018 74 347 4.0 9.0 0.00 0.00 0.00 45 1025.7
20260906140037 74 336 5.0 9.0 0.00 0.00 0.00 46 1025.6
20260906135017 74 353 5.0 11.0 0.00 0.00 0.00 46 1025.7
20260906134037 74 353 5.0 10.0 0.00 0.00 0.00 46 1025.8
20260906133037 75 18 3.0 9.0 0.00 0.00 0.00 47 1025.9
20260906132024 74 337 5.0 9.0 0.00 0.00 0.00 47 1026.0
20260906131016 75 352 4.0 10.0 0.00 0.00 0.00 47 1026.0
20260906130021 75 343 5.0 10.0 0.00 0.00 0.00 47 1026.0
20260906125016 75 323 5.0 10.0 0.00 0.00 0.00 46 1026.1
20260906124016 75 322 4.0 8.0 0.00 0.00 0.00 47 1026.2
20260906123017 75 12 4.0 10.0 0.00 0.00 0.00 47 1026.3
20260906122016 75 352 3.0 7.0 0.00 0.00 0.00 48 1026.4
20260906121057 74 7 4.0 12.0 0.00 0.00 0.00 49 1026.4
20260906120037 74 355 4.0 10.0 0.00 0.00 0.00 50 1026.5
20260906115015 73 348 2.0 7.0 0.00 0.00 0.00 50 1026.6
20260906114040 74 341 4.0 8.0 0.00 0.00 0.00 51 1026.8
20260906113016 73 339 2.0 8.0 0.00 0.00 0.00 52 1026.8
20260906112017 73 325 4.0 8.0 0.00 0.00 0.00 53 1026.9
20260906111016 73 9 4.0 9.0 0.00 0.00 0.00 53 1027.0
20260906110038 72 295 2.0 5.0 0.00 0.00 0.00 55 1027.0
20260906105037 72 352 4.0 9.0 0.00 0.00 0.00 54 1027.2
20260906104017 71 324 1.0 4.0 0.00 0.00 0.00 55 1027.2
20260906103015 72 11 2.0 5.0 0.00 0.00 0.00 55 1027.3
20260906102015 71 10 2.0 7.0 0.00 0.00 0.00 56 1027.4
20260906101016 71 7 3.0 6.0 0.00 0.00 0.00 56 1027.6
20260906100058 70 357 4.0 8.0 0.00 0.00 0.00 58 1027.6
20260906095017 70 353 3.0 6.0 0.00 0.00 0.00 58 1027.7
20260906094016 69 314 1.0 5.0 0.00 0.00 0.00 60 1027.8
20260906093016 69 4 3.0 8.0 0.00 0.00 0.00 60 1027.9
20260906092017 70 28 4.0 9.0 0.00 0.00 0.00 60 1027.9
20260906091015 70 66 3.0 5.0 0.00 0.00 0.00 60 1027.9
20260906090016 69 22 2.0 7.0 0.00 0.00 0.00 61 1027.9
20260906085016 67 148 1.0 3.0 0.00 0.00 0.00 62 1028.0
20260906084017 67 319 3.0 6.0 0.00 0.00 0.00 63 1027.9
20260906083016 67 64 2.0 6.0 0.00 0.01 0.00 63 1027.9
20260906082015 65 41 3.0 5.0 0.00 0.01 0.00 65 1027.9
20260906081036 64 3 3.0 6.0 0.00 0.01 0.00 68 1027.8
20260906080015 62 351 4.0 8.0 0.00 0.01 0.00 70 1027.9
20260906075016 61 335 3.0 7.0 0.00 0.01 0.00 72 1027.8
20260906074015 61 6 3.0 7.0 0.00 0.01 0.00 73 1027.7
20260906073018 60 349 3.0 5.0 0.00 0.01 0.00 75 1027.6
20260906072058 59 360 2.0 4.0 0.00 0.01 0.00 75 1027.7
20260906071015 59 342 3.0 5.0 0.00 0.01 0.00 77 1027.6
20260906070016 58 338 2.0 4.0 0.00 0.01 0.00 81 1027.6
20260906065015 56 340 2.0 4.0 0.00 0.01 0.00 87 1027.6
20260906064016 56 24 2.0 4.0 0.00 0.01 0.00 90 1027.6
20260906063016 55 83 0.0 1.0 0.00 0.01 0.00 91 1027.5
20260906062017 55 302 0.0 1.0 0.00 0.02 0.00 92 1027.7
20260906061016 54 0.0 0.0 0.00 0.02 0.00 92 1027.6
20260906060018 53 0.0 0.0 0.00 0.04 0.00 92 1027.5
20260906055017 52 0.0 0.0 0.00 0.06 0.00 92 1027.4
20260906054015 52 0.0 0.0 0.00 0.06 0.00 91 1027.4
20260906053017 51 0.0 0.0 0.00 0.06 0.00 91 1027.5
20260906052036 51 0.0 0.0 0.00 0.06 0.00 91 1027.4
20260906051017 51 0.0 0.0 0.00 0.06 0.00 91 1027.4
20260906050016 52 0.0 0.0 0.00 0.06 0.00 91 1027.4
20260906045017 52 0.0 0.0 0.00 0.06 0.00 91 1027.3
20260906044016 52 0.0 0.0 0.00 0.13 0.00 91 1027.3
20260906043015 52 0.0 0.0 0.00 0.13 0.00 91 1027.3
20260906042016 52 250 0.0 2.0 0.00 0.13 0.00 91 1027.2
20260906041015 52 0.0 0.0 0.00 0.13 0.00 91 1027.1
20260906040017 51 0.0 0.0 0.00 0.13 0.00 91 1027.0
20260906035016 51 0.0 0.0 0.00 0.13 0.00 91 1026.9
20260906034017 51 0.0 0.0 0.00 0.13 0.00 91 1026.9
20260906033017 51 0.0 0.0 0.00 0.13 0.00 91 1027.0
20260906032016 51 0.0 0.0 0.00 0.13 0.00 91 1026.9
20260906031017 51 0.0 0.0 0.00 0.13 0.00 90 1026.8
20260906030016 52 0.0 0.0 0.00 0.13 0.00 90 1026.7
20260906025017 52 0.0 0.0 0.00 0.13 0.00 91 1026.8
20260906024016 52 0.0 0.0 0.00 0.13 0.00 90 1026.8
20260906023015 52 0.0 0.0 0.00 0.13 0.00 90 1026.8
20260906022019 53 0.0 0.0 0.00 0.13 0.00 90 1026.8
20260906021016 53 0.0 0.0 0.00 0.13 0.00 90 1026.7
20260906020016 53 0.0 0.0 0.00 0.13 0.00 90 1026.8
20260906015015 53 0.0 0.0 0.00 0.13 0.00 90 1026.8
20260906014017 53 0.0 0.0 0.00 0.13 0.00 90 1026.8
20260906013016 54 0.0 0.0 0.00 0.13 0.00 90 1026.8
20260906012017 55 0.0 0.0 0.00 0.13 0.00 90 1026.8
20260906011017 55 0.0 0.0 0.00 0.13 0.00 90 1026.8
20260906010018 55 0.0 0.0 0.00 0.13 0.00 90 1026.8
20260906005016 55 0.0 0.0 0.00 0.13 0.00 90 1026.7
20260906004015 55 254 1.0 2.0 0.00 0.13 0.00 90 1026.7
20260906003017 56 260 1.0 3.0 0.00 0.13 0.00 90 1026.7
20260906002016 56 262 0.0 1.0 0.00 0.13 0.00 90 1026.7
20260906001017 56 268 1.0 2.0 0.00 0.13 0.00 89 1026.6
20260906000019 56 277 0.0 1.0 0.00 0.13 0.00 89 1026.6
20260905235016 56 329 2.0 4.0 0.00 0.13 0.00 89 1026.6
20260905234016 57 183 0.0 1.0 0.00 0.13 0.00 89 1026.4
20260905233036 57 183 1.0 2.0 0.00 0.13 0.00 89 1026.6
20260905232038 57 183 2.0 3.0 0.00 0.13 0.00 89 1026.5
20260905231015 57 183 2.0 4.0 0.00 0.13 0.00 88 1026.5
20260905230015 57 186 2.0 5.0 0.00 0.13 0.00 88 1026.5
20260905225037 57 208 2.0 4.0 0.00 0.13 0.00 88 1026.4
20260905224016 58 211 1.0 3.0 0.00 0.13 0.00 88 1026.3
20260905223016 58 213 1.0 3.0 0.00 0.13 0.00 88 1026.3
20260905222015 58 208 1.0 3.0 0.00 0.13 0.00 88 1026.2
20260905221017 58 211 1.0 4.0 0.00 0.13 0.00 88 1026.2
20260905220016 58 200 2.0 4.0 0.00 0.13 0.00 87 1026.2
20260905215015 58 197 2.0 5.0 0.00 0.13 0.13 87 1026.2
20260905214016 58 210 1.0 2.0 0.00 0.13 0.13 87 1026.1
20260905213017 59 208 2.0 4.0 0.00 0.13 0.13 87 1026.0
20260905212019 59 191 2.0 4.0 0.00 0.13 0.13 87 1026.0
20260905211015 59 202 1.0 2.0 0.00 0.13 0.13 86 1026.0
20260905210019 60 208 1.0 2.0 0.00 0.13 0.13 86 1025.9
20260905205043 60 208 1.0 2.0 0.00 0.13 0.13 86 1025.8
20260905204019 60 208 0.0 1.0 0.00 0.13 0.13 86 1025.9
20260905203016 61 0.0 0.0 0.00 0.13 0.13 85 1025.9
20260905202041 61 0.0 0.0 0.00 0.13 0.13 85 1025.7
20260905201017 62 208 0.0 2.0 0.00 0.13 0.13 83 1025.6
20260905200036 63 202 2.0 4.0 0.00 0.13 0.13 82 1025.5
20260905195017 63 214 3.0 5.0 0.00 0.13 0.13 82 1025.5
20260905194015 64 206 3.0 6.0 0.00 0.13 0.13 81 1025.4
20260905193017 64 228 3.0 6.0 0.00 0.13 0.13 81 1025.2
20260905192016 65 217 2.0 5.0 0.00 0.13 0.13 79 1025.0
20260905191018 66 222 4.0 8.0 0.00 0.13 0.13 79 1024.9
20260905190016 66 217 7.0 12.0 0.00 0.13 0.13 79 1024.6
20260905185017 66 211 6.0 13.0 0.00 0.13 0.13 81 1024.4
20260905184017 66 217 6.0 12.0 0.00 0.13 0.13 83 1024.3
20260905183015 66 208 6.0 11.0 0.00 0.13 0.13 83 1024.2
20260905182015 66 204 4.0 8.0 0.00 0.13 0.13 82 1024.1
20260905181017 67 202 5.0 9.0 0.00 0.13 0.13 82 1024.0
20260905180016 67 204 3.0 6.0 0.00 0.13 0.13 81 1023.9
20260905175016 67 204 4.0 7.0 0.00 0.13 0.13 80 1023.7
20260905174015 68 205 4.0 8.0 0.00 0.13 0.13 79 1023.7
20260905173020 68 204 4.0 9.0 0.00 0.13 0.13 78 1023.5
20260905172036 69 203 6.0 11.0 0.00 0.13 0.13 77 1023.4
20260905171024 70 202 5.0 9.0 0.00 0.13 0.13 76 1023.4
20260905170036 70 206 5.0 11.0 0.00 0.13 0.13 75 1023.3